Location: Anciles
(42.5833°N, 0.5167°E)
Time: 07:54:47
(UTC+00:00)

Cosmos 921 Rocket - Pass Details

Date: 10 December 2019
Orbit: 572 x 632 km, 75.8° (Epoch: 18 January)

Event Time Altitude Azimuth Distance (km) Brightness Sun altitude
Rises 18:08:26 0° 344° (NNW) 2,819 6.5 -18.4°
Reaches altitude 10° 18:10:39 10° 347° (NNW) 1,923 5.6 -18.8°
Maximum altitude 18:14:55 71° 72° (ENE) 633 2.8 -19.6°
Drops below altitude 10° 18:19:15 10° 157° (SSE) 1,945 5.5 -20.4°
Sets 18:21:30 0° 159° (SSE) 2,854 6.4 -20.8°
